Time,TemperatureF,DewpointF,PressureIn,WindDirection,WindDirectionDegrees,WindSpeedMPH,WindSpeedGustMPH,Humidity,HourlyPrecipIn,Conditions,Clouds,dailyrainin,SoftwareType,DateUTC
2013-01-29 00:21:00,54.0,-99.9,-100.00,West,276,7.0,12.0,-999,-99.99,,,-99.99,,2013-01-29 08:21:00,
2013-01-29 02:10:00,51.0,-99.9,-100.00,West,264,7.0,10.0,-999,-99.99,,,-99.99,,2013-01-29 10:10:00,
2013-01-29 02:22:00,53.0,-99.9,-100.00,SW,236,3.0,4.0,-999,-99.99,,,-99.99,,2013-01-29 10:22:00,
2013-01-29 02:32:00,54.0,-99.9,-100.00,West,274,9.0,12.0,-999,-99.99,,,-99.99,,2013-01-29 10:32:00,
2013-01-29 02:52:00,51.0,-99.9,-100.00,West,264,7.0,10.0,-999,-99.99,,,-99.99,,2013-01-29 10:52:00,
2013-01-29 03:02:00,51.0,-99.9,-100.00,West,264,7.0,10.0,-999,-99.99,,,-99.99,,2013-01-29 11:02:00,
2013-01-29 04:22:00,52.0,-99.9,-100.00,South,184,0.0,2.0,-999,-99.99,,,-99.99,,2013-01-29 12:22:00,
2013-01-29 05:10:00,52.0,-99.9,-100.00,SE,126,3.0,3.0,-999,-99.99,,,-99.99,,2013-01-29 13:10:00,
2013-01-29 05:53:00,52.0,-99.9,-100.00,SE,126,3.0,3.0,-999,-99.99,,,-99.99,,2013-01-29 13:53:00,
2013-01-29 06:02:00,52.0,-99.9,-100.00,SE,126,3.0,3.0,-999,-99.99,,,-99.99,,2013-01-29 14:02:00,
2013-01-29 06:33:00,51.0,-99.9,-100.00,South,169,0.0,3.0,-999,-99.99,,,-99.99,,2013-01-29 14:33:00,
2013-01-29 06:43:00,51.0,-99.9,-100.00,South,169,0.0,3.0,-999,-99.99,,,-99.99,,2013-01-29 14:43:00,
2013-01-29 06:53:00,51.0,-99.9,-100.00,South,169,0.0,3.0,-999,-99.99,,,-99.99,,2013-01-29 14:53:00,
2013-01-29 08:00:00,56.0,-99.9,-100.00,North,9,0.0,2.0,-999,-99.99,,,-99.99,,2013-01-29 16:00:00,
2013-01-29 08:50:00,57.0,-99.9,-100.00,ESE,105,0.0,1.0,-999,-99.99,,,-99.99,,2013-01-29 16:50:00,
2013-01-29 08:53:00,56.0,-99.9,-100.00,North,9,0.0,2.0,-999,-99.99,,,-99.99,,2013-01-29 16:53:00,
2013-01-29 09:33:00,57.0,-99.9,-100.00,ESE,105,0.0,1.0,-999,-99.99,,,-99.99,,2013-01-29 17:33:00,
2013-01-29 09:43:00,57.0,-99.9,-100.00,ESE,105,0.0,1.0,-999,-99.99,,,-99.99,,2013-01-29 17:43:00,
2013-01-29 11:33:00,62.0,-99.9,-100.00,South,175,0.0,1.0,-999,-99.99,,,-99.99,,2013-01-29 19:33:00,
2013-01-29 11:42:00,62.0,-99.9,-100.00,South,175,0.0,1.0,-999,-99.99,,,-99.99,,2013-01-29 19:42:00,
2013-01-29 11:52:00,62.0,-99.9,-100.00,South,183,0.0,1.0,-999,-99.99,,,-99.99,,2013-01-29 19:52:00,
2013-01-29 12:03:00,62.0,-99.9,-100.00,South,183,0.0,1.0,-999,-99.99,,,-99.99,,2013-01-29 20:03:00,
2013-01-29 12:10:00,64.0,-99.9,-100.00,SSE,156,0.0,0.0,-999,-99.99,,,-99.99,,2013-01-29 20:10:00,
2013-01-29 12:13:00,62.0,-99.9,-100.00,South,183,0.0,1.0,-999,-99.99,,,-99.99,,2013-01-29 20:13:00,
2013-01-29 12:23:00,62.0,-99.9,-100.00,East,91,2.0,5.0,-999,-99.99,,,-99.99,,2013-01-29 20:23:00,
2013-01-29 12:33:00,62.0,-99.9,-100.00,East,91,2.0,5.0,-999,-99.99,,,-99.99,,2013-01-29 20:33:00,
2013-01-29 12:43:00,62.0,-99.9,-100.00,East,91,2.0,5.0,-999,-99.99,,,-99.99,,2013-01-29 20:43:00,
2013-01-29 12:54:00,64.0,-99.9,-100.00,SSE,156,0.0,0.0,-999,-99.99,,,-99.99,,2013-01-29 20:54:00,
2013-01-29 13:03:00,64.0,-99.9,-100.00,SSE,156,0.0,0.0,-999,-99.99,,,-99.99,,2013-01-29 21:03:00,
2013-01-29 13:50:00,65.0,-99.9,-100.00,West,276,2.0,6.0,-999,-99.99,,,-99.99,,2013-01-29 21:50:00,
2013-01-29 14:33:00,65.0,-99.9,-100.00,West,276,2.0,6.0,-999,-99.99,,,-99.99,,2013-01-29 22:33:00,
2013-01-29 14:43:00,65.0,-99.9,-100.00,West,276,2.0,6.0,-999,-99.99,,,-99.99,,2013-01-29 22:43:00,
2013-01-29 15:20:00,66.0,-99.9,-100.00,WSW,244,1.0,1.0,-999,-99.99,,,-99.99,,2013-01-29 23:20:00,
2013-01-29 16:03:00,66.0,-99.9,-100.00,WSW,244,1.0,1.0,-999,-99.99,,,-99.99,,2013-01-30 00:03:00,
2013-01-29 16:12:00,66.0,-99.9,-100.00,WSW,244,1.0,1.0,-999,-99.99,,,-99.99,,2013-01-30 00:12:00,
2013-01-29 18:22:00,63.0,-99.9,-100.00,ENE,78,0.0,1.0,-999,-99.99,,,-99.99,,2013-01-30 02:22:00,
2013-01-29 18:33:00,63.0,-99.9,-100.00,ENE,78,0.0,1.0,-999,-99.99,,,-99.99,,2013-01-30 02:33:00,
2013-01-29 19:03:00,61.0,-99.9,-100.00,NW,304,2.0,11.0,-999,-99.99,,,-99.99,,2013-01-30 03:03:00,
2013-01-29 19:12:00,61.0,-99.9,-100.00,NW,304,2.0,11.0,-999,-99.99,,,-99.99,,2013-01-30 03:12:00,
2013-01-29 19:22:00,61.0,-99.9,-100.00,NW,304,2.0,11.0,-999,-99.99,,,-99.99,,2013-01-30 03:22:00,
2013-01-29 19:30:00,60.0,-99.9,-100.00,ENE,74,0.0,0.0,-999,-99.99,,,-99.99,,2013-01-30 03:30:00,
2013-01-29 19:33:00,61.0,-99.9,-100.00,NW,310,0.0,7.0,-999,-99.99,,,-99.99,,2013-01-30 03:33:00,
2013-01-29 19:42:00,61.0,-99.9,-100.00,NW,310,0.0,7.0,-999,-99.99,,,-99.99,,2013-01-30 03:42:00,
2013-01-29 20:02:00,60.0,-99.9,-100.00,ENE,74,0.0,0.0,-999,-99.99,,,-99.99,,2013-01-30 04:02:00,
2013-01-29 20:12:00,60.0,-99.9,-100.00,ENE,74,0.0,0.0,-999,-99.99,,,-99.99,,2013-01-30 04:12:00,
2013-01-29 20:22:00,60.0,-99.9,-100.00,ENE,74,0.0,0.0,-999,-99.99,,,-99.99,,2013-01-30 04:22:00,
2013-01-29 21:04:00,58.0,-99.9,-100.00,SE,131,1.0,2.0,-999,-99.99,,,-99.99,,2013-01-30 05:04:00,
2013-01-29 21:12:00,58.0,-99.9,-100.00,SE,131,1.0,2.0,-999,-99.99,,,-99.99,,2013-01-30 05:12:00,
2013-01-29 21:20:00,56.0,-99.9,-100.00,NE,52,3.0,4.0,-999,-99.99,,,-99.99,,2013-01-30 05:20:00,
2013-01-29 21:22:00,58.0,-99.9,-100.00,East,87,3.0,4.0,-999,-99.99,,,-99.99,,2013-01-30 05:22:00,
2013-01-29 21:33:00,58.0,-99.9,-100.00,East,87,3.0,4.0,-999,-99.99,,,-99.99,,2013-01-30 05:33:00,
2013-01-29 22:02:00,56.0,-99.9,-100.00,NE,52,3.0,4.0,-999,-99.99,,,-99.99,,2013-01-30 06:02:00,
2013-01-29 22:12:00,56.0,-99.9,-100.00,NE,52,3.0,4.0,-999,-99.99,,,-99.99,,2013-01-30 06:12:00,
2013-01-29 23:22:00,55.0,-99.9,-100.00,South,184,0.0,3.0,-999,-99.99,,,-99.99,,2013-01-30 07:22:00,
2013-01-29 23:32:00,55.0,-99.9,-100.00,South,184,0.0,3.0,-999,-99.99,,,-99.99,,2013-01-30 07:32:00,
2013-01-29 23:50:00,55.0,-99.9,-100.00,SSE,153,0.0,0.0,-999,-99.99,,,-99.99,,2013-01-30 07:50:00,